User: anonymous   Login
Location: Oshawa
(43.9000°N, 78.8670°W)
Time: 06:49:26
(UTC-04:00)
Language:

Cosmos 2333 Rocket - Orbit

View from above orbital plane
View from above orbital plane
View from above satellite
View from above satellite

Ground track
Ground track

The orbit data is extracted from the following two-line orbital elements,

1 24298U 96051B   17087.84487729 +.00000013 +00000-0 +33580-4 0  9995
2 24298 070.8476 231.4056 0017850 292.5726 067.3506 14.12487275060211
Epoch (UTC): 28 March 2017 20:16:37
Eccentricity: 0.0017850
inclination: 70.8476°
perigee height: 838 km
apogee height: 864 km
right ascension of ascending node: 231.4056°
argument of perigee: 292.5726°
revolutions per day: 14.12487275
mean anomaly at epoch: 67.3506°
orbit number at epoch: 6021

The dashed part of the orbit path shows where the satellite is in the earth's shadow,  

DLR